Weather History for Guymon, OK

Change the Weather History Date:

Thursday, February 7, 2013

  Actual Average Record
Temperature  
Mean Temperature 43 °F 37 °F  
Max Temperature 56 °F 52 °F 68 °F (2001)
Min Temperature 30 °F 23 °F 3 °F (2003)
Degree Days  
Heating Degree Days 22 28  
Month to date heating degree days 150 196  
Since 1 July heating degree days 2608 2924  
Cooling Degree Days 0 0  
Month to date cooling degree days 0 0  
Year to date cooling degree days 0 0  
Moisture  
Dew Point 25 °F    
Average Humidity 49    
Maximum Humidity 65    
Minimum Humidity 32    
Precipitation  
Precipitation 0.00 in 0.02 in 0.01 in (2008)
Month to date precipitation 0.00 0.11  
Year to date precipitation 0.31 0.51  
Snow  
Snow 0.00 in - - ()
Month to date snowfall 0.0  
Since 1 July snowfall 3.2  
Snow Depth 0.00 in    
Sea Level Pressure  
Sea Level Pressure 30.02 in    
Wind  
Wind Speed 16 mph (North)    
Max Wind Speed 29 mph    
Max Gust Speed 36 mph    
Visibility 10 miles    
Events      
T = Trace of Precipitation, MM = Missing Value Source: NWS Daily Summary

Daily Weather History Graph

Daily Weather History Graph

Search for Another Location

Airport:

Trip Planner

Search our weather history database for the weather conditions in past years. The results will help you decide how hot, cold, wet, or windy it might be!

Date:

Astronomy

Feb. 07, 2013 Rise Set
Actual Time 7:42 AM CST 6:18 PM CST
Civil Twilight 7:15 AM CST 6:45 PM CST
Nautical Twilight 6:44 AM CST 7:16 PM CST
Astronomical Twilight 6:14 AM CST 7:46 PM CST
Moon 5:21 AM CST (2/7) 3:47 PM CST (2/7)
Length of Visible Light 11h 29m
Length of Day
10h 36m
Waning Crescent, 9% of the Moon is Illuminated
Feb 7
Waning Crescent
Feb 10
New
Feb 17
First Quarter
Feb 25
Full
Mar 4
Last Quarter

Hourly Weather History & Observations

Time (CST) Temp. Windchill Dew Point Humidity Pressure Visibility Wind Dir Wind Speed Gust Speed Precip Events Conditions
12:53 AM 46.0 °F 39.3 °F 36.0 °F 68% 29.73 in 10.0 mi North 16.1 mph - N/A   Clear
1:53 AM 46.9 °F - 25.0 °F 42% 29.75 in 10.0 mi North 20.7 mph 29.9 mph N/A   Clear
2:53 AM 46.0 °F 38.5 °F 25.0 °F 44% 29.78 in 10.0 mi North 19.6 mph 29.9 mph N/A   Clear
3:53 AM 46.0 °F 37.8 °F 23.0 °F 40% 29.81 in 10.0 mi North 23.0 mph 35.7 mph N/A   Clear
4:53 AM 45.0 °F 36.4 °F 25.0 °F 46% 29.83 in 10.0 mi North 23.0 mph 31.1 mph N/A   Mostly Cloudy
5:53 AM 45.0 °F 36.4 °F 27.0 °F 49% 29.88 in 10.0 mi North 23.0 mph 31.1 mph N/A   Overcast
6:53 AM 43.0 °F 33.8 °F 27.0 °F 53% 29.94 in 10.0 mi North 23.0 mph 31.1 mph N/A   Scattered Clouds
7:53 AM 42.1 °F 32.6 °F 25.0 °F 51% 30.01 in 10.0 mi North 23.0 mph - N/A   Overcast
8:53 AM 42.1 °F 32.6 °F 24.1 °F 49% 30.06 in 10.0 mi North 23.0 mph 29.9 mph N/A   Overcast
9:53 AM 43.0 °F 34.0 °F 24.1 °F 47% 30.09 in 10.0 mi North 21.9 mph 29.9 mph N/A   Clear
10:53 AM 48.9 °F - 25.0 °F 39% 30.10 in 10.0 mi NNE 27.6 mph 34.5 mph N/A   Clear
11:53 AM 52.0 °F - 27.0 °F 38% 30.11 in 10.0 mi North 23.0 mph 29.9 mph N/A   Clear
12:53 PM 53.1 °F - 27.0 °F 37% 30.09 in 10.0 mi NNE 20.7 mph 27.6 mph N/A   Clear
1:53 PM 54.0 °F - 27.0 °F 35% 30.07 in 10.0 mi North 18.4 mph 24.2 mph N/A   Clear
2:53 PM 55.0 °F - 26.1 °F 33% 30.06 in 10.0 mi North 16.1 mph 23.0 mph N/A   Clear
3:53 PM 55.0 °F - 26.1 °F 33% 30.06 in 10.0 mi North 12.7 mph 24.2 mph N/A   Partly Cloudy
4:53 PM 54.0 °F - 26.1 °F 34% 30.08 in 10.0 mi NNE 16.1 mph 21.9 mph N/A   Partly Cloudy
5:53 PM 51.1 °F - 24.1 °F 35% 30.11 in 10.0 mi North 9.2 mph - N/A   Clear
6:53 PM 45.0 °F - 23.0 °F 42% 30.14 in 10.0 mi Calm Calm - N/A   Clear
7:53 PM 46.0 °F - 23.0 °F 40% 30.15 in 10.0 mi Calm Calm - N/A   Clear
8:53 PM 39.0 °F 35.7 °F 21.9 °F 50% 30.18 in 10.0 mi South 4.6 mph - N/A   Clear
9:53 PM 36.0 °F 31.1 °F 21.9 °F 57% 30.19 in 10.0 mi SSW 5.8 mph - N/A   Clear
10:53 PM 32.0 °F 25.6 °F 19.9 °F 61% 30.19 in 10.0 mi SW 6.9 mph - N/A   Clear
11:53 PM 30.9 °F 25.2 °F 19.9 °F 64% 30.19 in 10.0 mi SW 5.8 mph - N/A   Clear